owner,sensor,date,latitude,longitude,vertical_datum,wind_speed,wind_to_direction,wind_speed_of_gust,qcFlag 
LUMCON,ioos:station:LUMCON:101:1,2017-05-01T00:00:00Z,29.2533,-90.6633,1.0,-9999.0,0.0,-9999.0,'1111122,1114422,1111122' 
LUMCON,ioos:station:LUMCON:101:1,2017-05-01T00:15:00Z,29.2533,-90.6633,1.0,5.0,286.0,-9999.0,'1111122,1111122,1111122' 
LUMCON,ioos:station:LUMCON:101:1,2017-05-01T00:30:00Z,29.2533,-90.6633,1.0,5.3,271.0,-9999.0,'1111122,1111122,1111122' 
LUMCON,ioos:station:LUMCON:101:1,2017-05-01T00:45:00Z,29.2533,-90.6633,1.0,3.9,277.0,-9999.0,'1111122,1111122,1111122' 
LUMCON,ioos:station:LUMCON:101:1,2017-05-01T01:00:00Z,29.2533,-90.6633,1.0,5.1,263.0,-9999.0,'1111122,1111122,1111122' 
LUMCON,ioos:station:LUMCON:101:1,2017-05-01T01:15:00Z,29.2533,-90.6633,1.0,5.8,255.0,-9999.0,'1111122,1111122,1111122' 
LUMCON,ioos:station:LUMCON:101:1,2017-05-01T01:30:00Z,29.2533,-90.6633,1.0,6.6,256.0,-9999.0,'1111122,1111122,1111122' 
LUMCON,ioos:station:LUMCON:101:1,2017-05-01T01:45:00Z,29.2533,-90.6633,1.0,6.5,272.0,-9999.0,'1111122,1111122,1111122' 
LUMCON,ioos:station:LUMCON:101:1,2017-05-01T02:00:00Z,29.2533,-90.6633,1.0,4.9,272.0,-9999.0,'1111122,1111122,1111122' 
LUMCON,ioos:station:LUMCON:101:1,2017-05-01T02:15:00Z,29.2533,-90.6633,1.0,5.7,268.0,-9999.0,'1111122,1111122,1111122' 
LUMCON,ioos:station:LUMCON:101:1,2017-05-01T02:30:00Z,29.2533,-90.6633,1.0,7.2,275.0,-9999.0,'1111122,1111122,1111122' 
LUMCON,ioos:station:LUMCON:101:1,2017-05-01T02:45:00Z,29.2533,-90.6633,1.0,6.5,279.0,-9999.0,'1111122,1111122,1111122' 
LUMCON,ioos:station:LUMCON:101:1,2017-05-01T03:00:00Z,29.2533,-90.6633,1.0,5.7,284.0,-9999.0,'1111122,1111122,1111122' 
LUMCON,ioos:station:LUMCON:101:1,2017-05-01T03:15:00Z,29.2533,-90.6633,1.0,7.1,288.0,-9999.0,'1111122,1111122,1111122' 
LUMCON,ioos:station:LUMCON:101:1,2017-05-01T03:30:00Z,29.2533,-90.6633,1.0,6.3,294.0,-9999.0,'1111122,1111122,1111122' 
LUMCON,ioos:station:LUMCON:101:1,2017-05-01T03:45:00Z,29.2533,-90.6633,1.0,5.9,294.0,-9999.0,'1111122,1111122,1111122' 
LUMCON,ioos:station:LUMCON:101:1,2017-05-01T04:00:00Z,29.2533,-90.6633,1.0,7.6,289.0,-9999.0,'1111122,1111122,1111122' 
LUMCON,ioos:station:LUMCON:101:1,2017-05-01T04:15:00Z,29.2533,-90.6633,1.0,6.5,286.0,-9999.0,'1111122,1111122,1111122' 
LUMCON,ioos:station:LUMCON:101:1,2017-05-01T04:30:00Z,29.2533,-90.6633,1.0,7.0,299.0,-9999.0,'1111122,1111122,1111122' 
LUMCON,ioos:station:LUMCON:101:1,2017-05-01T04:45:00Z,29.2533,-90.6633,1.0,7.6,285.0,-9999.0,'1111122,1111122,1111122' 
LUMCON,ioos:station:LUMCON:101:1,2017-05-01T05:00:00Z,29.2533,-90.6633,1.0,10.4,297.0,-9999.0,'1111122,1111122,1111122' 
LUMCON,ioos:station:LUMCON:101:1,2017-05-01T05:15:00Z,29.2533,-90.6633,1.0,6.9,299.0,-9999.0,'1111122,1111122,1111122' 
LUMCON,ioos:station:LUMCON:101:1,2017-05-01T05:30:00Z,29.2533,-90.6633,1.0,9.6,295.0,-9999.0,'1111122,1111122,1111122' 
LUMCON,ioos:station:LUMCON:101:1,2017-05-01T05:45:00Z,29.2533,-90.6633,1.0,9.4,306.0,-9999.0,'1111122,1111122,1111122' 
LUMCON,ioos:station:LUMCON:101:1,2017-05-01T06:00:00Z,29.2533,-90.6633,1.0,8.5,304.0,-9999.0,'1111122,1111122,1111122' 
LUMCON,ioos:station:LUMCON:101:1,2017-05-01T06:15:00Z,29.2533,-90.6633,1.0,7.8,295.0,-9999.0,'1111122,1111122,1111122' 
LUMCON,ioos:station:LUMCON:101:1,2017-05-01T06:30:00Z,29.2533,-90.6633,1.0,6.6,301.0,-9999.0,'1111122,1111122,1111122' 
LUMCON,ioos:station:LUMCON:101:1,2017-05-01T06:45:00Z,29.2533,-90.6633,1.0,6.9,304.0,-9999.0,'1111122,1111122,1111122' 
LUMCON,ioos:station:LUMCON:101:1,2017-05-01T07:00:00Z,29.2533,-90.6633,1.0,8.3,297.0,-9999.0,'1111122,1111122,1111122' 
LUMCON,ioos:station:LUMCON:101:1,2017-05-01T07:15:00Z,29.2533,-90.6633,1.0,4.6,299.0,-9999.0,'1111122,1111122,1111122' 
LUMCON,ioos:station:LUMCON:101:1,2017-05-01T07:30:00Z,29.2533,-90.6633,1.0,7.8,302.0,-9999.0,'1111122,1111122,1111122' 
LUMCON,ioos:station:LUMCON:101:1,2017-05-01T07:45:00Z,29.2533,-90.6633,1.0,5.5,298.0,-9999.0,'1111122,1111122,1111122' 
LUMCON,ioos:station:LUMCON:101:1,2017-05-01T08:00:00Z,29.2533,-90.6633,1.0,7.2,296.0,-9999.0,'1111122,1111122,1111122' 
LUMCON,ioos:station:LUMCON:101:1,2017-05-01T08:15:00Z,29.2533,-90.6633,1.0,7.6,299.0,-9999.0,'1111122,1111122,1111122' 
LUMCON,ioos:station:LUMCON:101:1,2017-05-01T08:30:00Z,29.2533,-90.6633,1.0,7.0,300.0,-9999.0,'1111122,1111122,1111122' 
LUMCON,ioos:station:LUMCON:101:1,2017-05-01T08:45:00Z,29.2533,-90.6633,1.0,4.8,303.0,-9999.0,'1111122,1111122,1111122' 
LUMCON,ioos:station:LUMCON:101:1,2017-05-01T09:00:00Z,29.2533,-90.6633,1.0,5.1,305.0,-9999.0,'1111122,1111122,1111122' 
LUMCON,ioos:station:LUMCON:101:1,2017-05-01T09:15:00Z,29.2533,-90.6633,1.0,5.7,297.0,-9999.0,'1111122,1111122,1111122' 
LUMCON,ioos:station:LUMCON:101:1,2017-05-01T09:30:00Z,29.2533,-90.6633,1.0,6.3,297.0,-9999.0,'1111122,1111122,1111122' 
LUMCON,ioos:station:LUMCON:101:1,2017-05-01T09:45:00Z,29.2533,-90.6633,1.0,6.5,299.0,-9999.0,'1111122,1111122,1111122' 
LUMCON,ioos:station:LUMCON:101:1,2017-05-01T10:00:00Z,29.2533,-90.6633,1.0,5.1,302.0,-9999.0,'1111122,1111122,1111122' 
LUMCON,ioos:station:LUMCON:101:1,2017-05-01T10:15:00Z,29.2533,-90.6633,1.0,3.7,302.0,-9999.0,'1111122,1111122,1111122' 
LUMCON,ioos:station:LUMCON:101:1,2017-05-01T10:30:00Z,29.2533,-90.6633,1.0,4.5,303.0,-9999.0,'1111122,1111122,1111122' 
LUMCON,ioos:station:LUMCON:101:1,2017-05-01T10:45:00Z,29.2533,-90.6633,1.0,5.9,303.0,-9999.0,'1111122,1111122,1111122' 
LUMCON,ioos:station:LUMCON:101:1,2017-05-01T11:00:00Z,29.2533,-90.6633,1.0,3.2,311.0,-9999.0,'1111122,1111122,1111122' 
LUMCON,ioos:station:LUMCON:101:1,2017-05-01T11:15:00Z,29.2533,-90.6633,1.0,3.4,300.0,-9999.0,'1111122,1111122,1111122' 
LUMCON,ioos:station:LUMCON:101:1,2017-05-01T11:30:00Z,29.2533,-90.6633,1.0,3.7,305.0,-9999.0,'1111122,1111122,1111122' 
LUMCON,ioos:station:LUMCON:101:1,2017-05-01T11:45:00Z,29.2533,-90.6633,1.0,3.2,299.0,-9999.0,'1111122,1111122,1111122' 
LUMCON,ioos:station:LUMCON:101:1,2017-05-01T12:00:00Z,29.2533,-90.6633,1.0,3.7,296.0,-9999.0,'1111122,1111122,1111122' 
LUMCON,ioos:station:LUMCON:101:1,2017-05-01T12:15:00Z,29.2533,-90.6633,1.0,3.3,308.0,-9999.0,'1111122,1111122,1111122' 
LUMCON,ioos:station:LUMCON:101:1,2017-05-01T12:30:00Z,29.2533,-90.6633,1.0,3.9,305.0,-9999.0,'1111122,1111122,1111122' 
LUMCON,ioos:station:LUMCON:101:1,2017-05-01T12:45:00Z,29.2533,-90.6633,1.0,4.5,316.0,-9999.0,'1111122,1111122,1111122' 
LUMCON,ioos:station:LUMCON:101:1,2017-05-01T13:00:00Z,29.2533,-90.6633,1.0,4.3,300.0,-9999.0,'1111122,1111122,1111122' 
LUMCON,ioos:station:LUMCON:101:1,2017-05-01T13:15:00Z,29.2533,-90.6633,1.0,3.7,303.0,-9999.0,'1111122,1111122,1111122' 
LUMCON,ioos:station:LUMCON:101:1,2017-05-01T13:30:00Z,29.2533,-90.6633,1.0,2.9,329.0,-9999.0,'1111122,1111122,1111122' 
LUMCON,ioos:station:LUMCON:101:1,2017-05-01T13:45:00Z,29.2533,-90.6633,1.0,4.6,316.0,-9999.0,'1111122,1111122,1111122' 
LUMCON,ioos:station:LUMCON:101:1,2017-05-01T14:00:00Z,29.2533,-90.6633,1.0,4.5,317.0,-9999.0,'1111122,1111122,1111122' 
LUMCON,ioos:station:LUMCON:101:1,2017-05-01T14:15:00Z,29.2533,-90.6633,1.0,4.0,341.0,-9999.0,'1111122,1111122,1111122' 
LUMCON,ioos:station:LUMCON:101:1,2017-05-01T14:30:00Z,29.2533,-90.6633,1.0,3.7,335.0,-9999.0,'1111122,1111122,1111122' 
LUMCON,ioos:station:LUMCON:101:1,2017-05-01T14:45:00Z,29.2533,-90.6633,1.0,4.1,335.0,-9999.0,'1111122,1111122,1111122' 
LUMCON,ioos:station:LUMCON:101:1,2017-05-01T15:00:00Z,29.2533,-90.6633,1.0,3.6,340.0,-9999.0,'1111122,1111122,1111122' 
LUMCON,ioos:station:LUMCON:101:1,2017-05-01T15:15:00Z,29.2533,-90.6633,1.0,4.3,352.0,-9999.0,'1111122,1111122,1111122' 
LUMCON,ioos:station:LUMCON:101:1,2017-05-01T15:30:00Z,29.2533,-90.6633,1.0,4.7,322.0,-9999.0,'1111122,1111122,1111122' 
LUMCON,ioos:station:LUMCON:101:1,2017-05-01T15:45:00Z,29.2533,-90.6633,1.0,4.8,325.0,-9999.0,'1111122,1111122,1111122' 
LUMCON,ioos:station:LUMCON:101:1,2017-05-01T16:00:00Z,29.2533,-90.6633,1.0,2.4,16.0,-9999.0,'1111122,1111122,1111122' 
LUMCON,ioos:station:LUMCON:101:1,2017-05-01T16:15:00Z,29.2533,-90.6633,1.0,2.8,355.0,-9999.0,'1111122,1111122,1111122' 
LUMCON,ioos:station:LUMCON:101:1,2017-05-01T16:30:00Z,29.2533,-90.6633,1.0,1.6,348.0,-9999.0,'1111122,1111122,1111122' 
LUMCON,ioos:station:LUMCON:101:1,2017-05-01T16:45:00Z,29.2533,-90.6633,1.0,2.8,58.0,-9999.0,'1111122,1111122,1111122' 
LUMCON,ioos:station:LUMCON:101:1,2017-05-01T17:00:00Z,29.2533,-90.6633,1.0,3.1,353.0,-9999.0,'1111122,1111122,1111122' 
LUMCON,ioos:station:LUMCON:101:1,2017-05-01T17:15:00Z,29.2533,-90.6633,1.0,3.0,326.0,-9999.0,'1111122,1111122,1111122' 
LUMCON,ioos:station:LUMCON:101:1,2017-05-01T17:30:00Z,29.2533,-90.6633,1.0,4.3,325.0,-9999.0,'1111122,1111122,1111122' 
LUMCON,ioos:station:LUMCON:101:1,2017-05-01T17:45:00Z,29.2533,-90.6633,1.0,3.0,338.0,-9999.0,'1111122,1111122,1111122' 
LUMCON,ioos:station:LUMCON:101:1,2017-05-01T18:00:00Z,29.2533,-90.6633,1.0,2.8,350.0,-9999.0,'1111122,1111122,1111122' 
LUMCON,ioos:station:LUMCON:101:1,2017-05-01T18:15:00Z,29.2533,-90.6633,1.0,2.0,347.0,-9999.0,'1111122,1111122,1111122' 
LUMCON,ioos:station:LUMCON:101:1,2017-05-01T18:30:00Z,29.2533,-90.6633,1.0,2.9,74.0,-9999.0,'1111122,1111122,1111122' 
LUMCON,ioos:station:LUMCON:101:1,2017-05-01T18:45:00Z,29.2533,-90.6633,1.0,5.5,123.0,-9999.0,'1111122,1111122,1111122' 
LUMCON,ioos:station:LUMCON:101:1,2017-05-01T19:00:00Z,29.2533,-90.6633,1.0,3.6,119.0,-9999.0,'1111122,1111122,1111122' 
LUMCON,ioos:station:LUMCON:101:1,2017-05-01T19:15:00Z,29.2533,-90.6633,1.0,4.0,106.0,-9999.0,'1111122,1111122,1111122' 
LUMCON,ioos:station:LUMCON:101:1,2017-05-01T19:30:00Z,29.2533,-90.6633,1.0,-9999.0,0.0,-9999.0,'1111122,1114422,1111122' 
LUMCON,ioos:station:LUMCON:101:1,2017-05-01T19:45:00Z,29.2533,-90.6633,1.0,2.7,100.0,-9999.0,'1111122,1111122,1111122' 
LUMCON,ioos:station:LUMCON:101:1,2017-05-01T20:00:00Z,29.2533,-90.6633,1.0,3.2,84.0,-9999.0,'1111122,1111122,1111122' 
LUMCON,ioos:station:LUMCON:101:1,2017-05-01T20:15:00Z,29.2533,-90.6633,1.0,4.0,122.0,-9999.0,'1111122,1111122,1111122' 
LUMCON,ioos:station:LUMCON:101:1,2017-05-01T20:30:00Z,29.2533,-90.6633,1.0,3.3,124.0,-9999.0,'1111122,1111122,1111122' 
LUMCON,ioos:station:LUMCON:101:1,2017-05-01T20:45:00Z,29.2533,-90.6633,1.0,3.8,119.0,-9999.0,'1111122,1111122,1111122' 
LUMCON,ioos:station:LUMCON:101:1,2017-05-01T21:00:00Z,29.2533,-90.6633,1.0,4.9,132.0,-9999.0,'1111122,1111122,1111122' 
LUMCON,ioos:station:LUMCON:101:1,2017-05-01T21:15:00Z,29.2533,-90.6633,1.0,3.4,164.0,-9999.0,'1111122,1111122,1111122' 
LUMCON,ioos:station:LUMCON:101:1,2017-05-01T21:30:00Z,29.2533,-90.6633,1.0,3.4,141.0,-9999.0,'1111122,1111122,1111122' 
LUMCON,ioos:station:LUMCON:101:1,2017-05-01T21:45:00Z,29.2533,-90.6633,1.0,3.3,155.0,-9999.0,'1111122,1111122,1111122' 
LUMCON,ioos:station:LUMCON:101:1,2017-05-01T22:00:00Z,29.2533,-90.6633,1.0,1.9,153.0,-9999.0,'1111122,1111122,1111122' 
LUMCON,ioos:station:LUMCON:101:1,2017-05-01T22:15:00Z,29.2533,-90.6633,1.0,2.6,172.0,-9999.0,'1111122,1111122,1111122' 
LUMCON,ioos:station:LUMCON:101:1,2017-05-01T22:30:00Z,29.2533,-90.6633,1.0,3.4,177.0,-9999.0,'1111122,1111122,1111122' 
LUMCON,ioos:station:LUMCON:101:1,2017-05-01T22:45:00Z,29.2533,-90.6633,1.0,-9999.0,0.0,-9999.0,'1111122,1114422,1111122' 
LUMCON,ioos:station:LUMCON:101:1,2017-05-01T23:00:00Z,29.2533,-90.6633,1.0,2.6,185.0,-9999.0,'1111122,1111122,1111122' 
LUMCON,ioos:station:LUMCON:101:1,2017-05-01T23:15:00Z,29.2533,-90.6633,1.0,2.9,162.0,-9999.0,'1111122,1111122,1111122' 
LUMCON,ioos:station:LUMCON:101:1,2017-05-01T23:30:00Z,29.2533,-90.6633,1.0,2.4,182.0,-9999.0,'1111122,1111122,1111122' 
LUMCON,ioos:station:LUMCON:101:1,2017-05-01T23:45:00Z,29.2533,-90.6633,1.0,1.5,168.0,-9999.0,'1111122,1111122,1111122' 
LUMCON,ioos:station:LUMCON:101:1,2017-05-02T00:00:00Z,29.2533,-90.6633,1.0,-9999.0,0.0,-9999.0,'1111122,1114422,1111122' 
LUMCON,ioos:station:LUMCON:101:1,2017-05-02T00:15:00Z,29.2533,-90.6633,1.0,3.1,191.0,-9999.0,'1111122,1111122,1111122' 
LUMCON,ioos:station:LUMCON:101:1,2017-05-02T00:30:00Z,29.2533,-90.6633,1.0,2.9,202.0,-9999.0,'1111122,1111122,1111122' 
LUMCON,ioos:station:LUMCON:101:1,2017-05-02T00:45:00Z,29.2533,-90.6633,1.0,3.0,207.0,-9999.0,'1111122,1111122,1111122' 
LUMCON,ioos:station:LUMCON:101:1,2017-05-02T01:00:00Z,29.2533,-90.6633,1.0,1.9,204.0,-9999.0,'1111122,1111122,1111122' 
LUMCON,ioos:station:LUMCON:101:1,2017-05-02T01:15:00Z,29.2533,-90.6633,1.0,2.8,221.0,-9999.0,'1111122,1111122,1111122' 
LUMCON,ioos:station:LUMCON:101:1,2017-05-02T01:30:00Z,29.2533,-90.6633,1.0,2.8,249.0,-9999.0,'1111122,1111122,1111122' 
LUMCON,ioos:station:LUMCON:101:1,2017-05-02T01:45:00Z,29.2533,-90.6633,1.0,2.6,220.0,-9999.0,'1111122,1111122,1111122' 
LUMCON,ioos:station:LUMCON:101:1,2017-05-02T02:00:00Z,29.2533,-90.6633,1.0,2.5,232.0,-9999.0,'1111122,1111122,1111122' 
LUMCON,ioos:station:LUMCON:101:1,2017-05-02T02:15:00Z,29.2533,-90.6633,1.0,2.6,203.0,-9999.0,'1111122,1111122,1111122' 
LUMCON,ioos:station:LUMCON:101:1,2017-05-02T02:30:00Z,29.2533,-90.6633,1.0,1.9,225.0,-9999.0,'1111122,1111122,1111122' 
LUMCON,ioos:station:LUMCON:101:1,2017-05-02T02:45:00Z,29.2533,-90.6633,1.0,2.4,216.0,-9999.0,'1111122,1111122,1111122' 
LUMCON,ioos:station:LUMCON:101:1,2017-05-02T03:00:00Z,29.2533,-90.6633,1.0,2.4,220.0,-9999.0,'1111122,1111122,1111122' 
LUMCON,ioos:station:LUMCON:101:1,2017-05-02T03:15:00Z,29.2533,-90.6633,1.0,2.1,215.0,-9999.0,'1111122,1111122,1111122' 
LUMCON,ioos:station:LUMCON:101:1,2017-05-02T03:30:00Z,29.2533,-90.6633,1.0,1.9,200.0,-9999.0,'1111122,1111122,1111122' 
LUMCON,ioos:station:LUMCON:101:1,2017-05-02T03:45:00Z,29.2533,-90.6633,1.0,1.3,199.0,-9999.0,'1111122,1111122,1111122' 
LUMCON,ioos:station:LUMCON:101:1,2017-05-02T04:00:00Z,29.2533,-90.6633,1.0,1.9,215.0,-9999.0,'1111122,1111122,1111122' 
LUMCON,ioos:station:LUMCON:101:1,2017-05-02T04:15:00Z,29.2533,-90.6633,1.0,2.1,197.0,-9999.0,'1111122,1111122,1111122' 
LUMCON,ioos:station:LUMCON:101:1,2017-05-02T04:30:00Z,29.2533,-90.6633,1.0,1.6,215.0,-9999.0,'1111122,1111122,1111122' 
LUMCON,ioos:station:LUMCON:101:1,2017-05-02T04:45:00Z,29.2533,-90.6633,1.0,1.6,184.0,-9999.0,'1111122,1111122,1111122' 
LUMCON,ioos:station:LUMCON:101:1,2017-05-02T05:00:00Z,29.2533,-90.6633,1.0,1.8,191.0,-9999.0,'1111122,1111122,1111122' 
LUMCON,ioos:station:LUMCON:101:1,2017-05-02T05:15:00Z,29.2533,-90.6633,1.0,2.2,203.0,-9999.0,'1111122,1111122,1111122' 
LUMCON,ioos:station:LUMCON:101:1,2017-05-02T05:30:00Z,29.2533,-90.6633,1.0,2.3,176.0,-9999.0,'1111122,1111122,1111122' 
LUMCON,ioos:station:LUMCON:101:1,2017-05-02T05:45:00Z,29.2533,-90.6633,1.0,1.2,193.0,-9999.0,'1111122,1111122,1111122' 
LUMCON,ioos:station:LUMCON:101:1,2017-05-02T06:00:00Z,29.2533,-90.6633,1.0,2.0,205.0,-9999.0,'1111122,1111122,1111122' 
LUMCON,ioos:station:LUMCON:101:1,2017-05-02T06:15:00Z,29.2533,-90.6633,1.0,1.2,212.0,-9999.0,'1111122,1111122,1111122' 
LUMCON,ioos:station:LUMCON:101:1,2017-05-02T06:30:00Z,29.2533,-90.6633,1.0,1.8,193.0,-9999.0,'1111122,1111122,1111122' 
LUMCON,ioos:station:LUMCON:101:1,2017-05-02T06:45:00Z,29.2533,-90.6633,1.0,1.6,182.0,-9999.0,'1111122,1111122,1111122' 
LUMCON,ioos:station:LUMCON:101:1,2017-05-02T07:00:00Z,29.2533,-90.6633,1.0,1.8,169.0,-9999.0,'1111122,1111122,1111122' 
LUMCON,ioos:station:LUMCON:101:1,2017-05-02T07:15:00Z,29.2533,-90.6633,1.0,1.6,165.0,-9999.0,'1111122,1111122,1111122' 
LUMCON,ioos:station:LUMCON:101:1,2017-05-02T07:30:00Z,29.2533,-90.6633,1.0,2.0,174.0,-9999.0,'1111122,1111122,1111122' 
LUMCON,ioos:station:LUMCON:101:1,2017-05-02T07:45:00Z,29.2533,-90.6633,1.0,1.1,185.0,-9999.0,'1111122,1111122,1111122' 
LUMCON,ioos:station:LUMCON:101:1,2017-05-02T08:00:00Z,29.2533,-90.6633,1.0,1.4,178.0,-9999.0,'1111122,1111122,1111122' 
LUMCON,ioos:station:LUMCON:101:1,2017-05-02T08:15:00Z,29.2533,-90.6633,1.0,1.3,207.0,-9999.0,'1111122,1111122,1111122' 
LUMCON,ioos:station:LUMCON:101:1,2017-05-02T08:30:00Z,29.2533,-90.6633,1.0,1.5,186.0,-9999.0,'1111122,1111122,1111122' 
LUMCON,ioos:station:LUMCON:101:1,2017-05-02T08:45:00Z,29.2533,-90.6633,1.0,0.9,183.0,-9999.0,'1111122,1111122,1111122' 
LUMCON,ioos:station:LUMCON:101:1,2017-05-02T09:00:00Z,29.2533,-90.6633,1.0,1.4,180.0,-9999.0,'1111122,1111122,1111122' 
LUMCON,ioos:station:LUMCON:101:1,2017-05-02T09:15:00Z,29.2533,-90.6633,1.0,1.5,171.0,-9999.0,'1111122,1111122,1111122' 
LUMCON,ioos:station:LUMCON:101:1,2017-05-02T09:30:00Z,29.2533,-90.6633,1.0,1.1,162.0,-9999.0,'1111122,1111122,1111122' 
LUMCON,ioos:station:LUMCON:101:1,2017-05-02T09:45:00Z,29.2533,-90.6633,1.0,1.3,159.0,-9999.0,'1111122,1111122,1111122' 
LUMCON,ioos:station:LUMCON:101:1,2017-05-02T10:00:00Z,29.2533,-90.6633,1.0,0.3,121.0,-9999.0,'1111122,1111122,1111122' 
LUMCON,ioos:station:LUMCON:101:1,2017-05-02T10:15:00Z,29.2533,-90.6633,1.0,0.6,142.0,-9999.0,'1111122,1111122,1111122' 
LUMCON,ioos:station:LUMCON:101:1,2017-05-02T10:30:00Z,29.2533,-90.6633,1.0,0.5,41.0,-9999.0,'1111122,1111122,1111122' 
LUMCON,ioos:station:LUMCON:101:1,2017-05-02T10:45:00Z,29.2533,-90.6633,1.0,0.7,36.0,-9999.0,'1111122,1111122,1111122' 
LUMCON,ioos:station:LUMCON:101:1,2017-05-02T11:00:00Z,29.2533,-90.6633,1.0,0.6,43.0,-9999.0,'1111122,1111122,1111122' 
LUMCON,ioos:station:LUMCON:101:1,2017-05-02T11:15:00Z,29.2533,-90.6633,1.0,0.8,50.0,-9999.0,'1111122,1111122,1111122' 
LUMCON,ioos:station:LUMCON:101:1,2017-05-02T11:30:00Z,29.2533,-90.6633,1.0,1.0,64.0,-9999.0,'1111122,1111122,1111122' 
LUMCON,ioos:station:LUMCON:101:1,2017-05-02T11:45:00Z,29.2533,-90.6633,1.0,1.0,68.0,-9999.0,'1111122,1111122,1111122' 
LUMCON,ioos:station:LUMCON:101:1,2017-05-02T12:00:00Z,29.2533,-90.6633,1.0,1.9,64.0,-9999.0,'1111122,1111122,1111122' 
LUMCON,ioos:station:LUMCON:101:1,2017-05-02T12:15:00Z,29.2533,-90.6633,1.0,0.7,91.0,-9999.0,'1111122,1111122,1111122' 
LUMCON,ioos:station:LUMCON:101:1,2017-05-02T12:30:00Z,29.2533,-90.6633,1.0,1.1,67.0,-9999.0,'1111122,1111122,1111122' 
LUMCON,ioos:station:LUMCON:101:1,2017-05-02T12:45:00Z,29.2533,-90.6633,1.0,1.0,16.0,-9999.0,'1111122,1111122,1111122' 
LUMCON,ioos:station:LUMCON:101:1,2017-05-02T13:00:00Z,29.2533,-90.6633,1.0,1.6,42.0,-9999.0,'1111122,1111122,1111122' 
LUMCON,ioos:station:LUMCON:101:1,2017-05-02T13:15:00Z,29.2533,-90.6633,1.0,2.1,43.0,-9999.0,'1111122,1111122,1111122' 
LUMCON,ioos:station:LUMCON:101:1,2017-05-02T13:30:00Z,29.2533,-90.6633,1.0,2.4,96.0,-9999.0,'1111122,1111122,1111122' 
LUMCON,ioos:station:LUMCON:101:1,2017-05-02T13:45:00Z,29.2533,-90.6633,1.0,1.7,47.0,-9999.0,'1111122,1111122,1111122' 
LUMCON,ioos:station:LUMCON:101:1,2017-05-02T14:00:00Z,29.2533,-90.6633,1.0,3.2,59.0,-9999.0,'1111122,1111122,1111122' 
LUMCON,ioos:station:LUMCON:101:1,2017-05-02T14:15:00Z,29.2533,-90.6633,1.0,3.2,66.0,-9999.0,'1111122,1111122,1111122' 
LUMCON,ioos:station:LUMCON:101:1,2017-05-02T14:30:00Z,29.2533,-90.6633,1.0,3.3,62.0,-9999.0,'1111122,1111122,1111122' 
LUMCON,ioos:station:LUMCON:101:1,2017-05-02T14:45:00Z,29.2533,-90.6633,1.0,2.1,84.0,-9999.0,'1111122,1111122,1111122' 
LUMCON,ioos:station:LUMCON:101:1,2017-05-02T15:00:00Z,29.2533,-90.6633,1.0,3.3,96.0,-9999.0,'1111122,1111122,1111122' 
LUMCON,ioos:station:LUMCON:101:1,2017-05-02T15:15:00Z,29.2533,-90.6633,1.0,2.2,32.0,-9999.0,'1111122,1111122,1111122' 
LUMCON,ioos:station:LUMCON:101:1,2017-05-02T15:30:00Z,29.2533,-90.6633,1.0,3.1,50.0,-9999.0,'1111122,1111122,1111122' 
LUMCON,ioos:station:LUMCON:101:1,2017-05-02T15:45:00Z,29.2533,-90.6633,1.0,3.1,81.0,-9999.0,'1111122,1111122,1111122' 
LUMCON,ioos:station:LUMCON:101:1,2017-05-02T16:00:00Z,29.2533,-90.6633,1.0,3.1,85.0,-9999.0,'1111122,1111122,1111122' 
LUMCON,ioos:station:LUMCON:101:1,2017-05-02T16:15:00Z,29.2533,-90.6633,1.0,3.1,85.0,-9999.0,'1111122,1111122,1111122' 
LUMCON,ioos:station:LUMCON:101:1,2017-05-02T16:30:00Z,29.2533,-90.6633,1.0,4.8,78.0,-9999.0,'1111122,1111122,1111122' 
LUMCON,ioos:station:LUMCON:101:1,2017-05-02T16:45:00Z,29.2533,-90.6633,1.0,4.4,83.0,-9999.0,'1111122,1111122,1111122' 
LUMCON,ioos:station:LUMCON:101:1,2017-05-02T17:00:00Z,29.2533,-90.6633,1.0,3.1,77.0,-9999.0,'1111122,1111122,1111122' 
LUMCON,ioos:station:LUMCON:101:1,2017-05-02T17:15:00Z,29.2533,-90.6633,1.0,3.8,53.0,-9999.0,'1111122,1111122,1111122' 
LUMCON,ioos:station:LUMCON:101:1,2017-05-02T17:30:00Z,29.2533,-90.6633,1.0,5.7,108.0,-9999.0,'1111122,1111122,1111122' 
LUMCON,ioos:station:LUMCON:101:1,2017-05-02T17:45:00Z,29.2533,-90.6633,1.0,4.1,78.0,-9999.0,'1111122,1111122,1111122' 
LUMCON,ioos:station:LUMCON:101:1,2017-05-02T18:00:00Z,29.2533,-90.6633,1.0,5.8,87.0,-9999.0,'1111122,1111122,1111122' 
LUMCON,ioos:station:LUMCON:101:1,2017-05-02T18:15:00Z,29.2533,-90.6633,1.0,6.4,101.0,-9999.0,'1111122,1111122,1111122' 
LUMCON,ioos:station:LUMCON:101:1,2017-05-02T18:30:00Z,29.2533,-90.6633,1.0,2.9,87.0,-9999.0,'1111122,1111122,1111122' 
LUMCON,ioos:station:LUMCON:101:1,2017-05-02T18:45:00Z,29.2533,-90.6633,1.0,5.6,84.0,-9999.0,'1111122,1111122,1111122' 
LUMCON,ioos:station:LUMCON:101:1,2017-05-02T19:00:00Z,29.2533,-90.6633,1.0,5.4,94.0,-9999.0,'1111122,1111122,1111122' 
LUMCON,ioos:station:LUMCON:101:1,2017-05-02T19:15:00Z,29.2533,-90.6633,1.0,6.2,102.0,-9999.0,'1111122,1111122,1111122' 
LUMCON,ioos:station:LUMCON:101:1,2017-05-02T19:30:00Z,29.2533,-90.6633,1.0,6.1,97.0,-9999.0,'1111122,1111122,1111122' 
LUMCON,ioos:station:LUMCON:101:1,2017-05-02T19:45:00Z,29.2533,-90.6633,1.0,6.1,102.0,-9999.0,'1111122,1111122,1111122' 
LUMCON,ioos:station:LUMCON:101:1,2017-05-02T20:00:00Z,29.2533,-90.6633,1.0,4.1,106.0,-9999.0,'1111122,1111122,1111122' 
LUMCON,ioos:station:LUMCON:101:1,2017-05-02T20:15:00Z,29.2533,-90.6633,1.0,5.8,91.0,-9999.0,'1111122,1111122,1111122' 
LUMCON,ioos:station:LUMCON:101:1,2017-05-02T20:30:00Z,29.2533,-90.6633,1.0,4.7,90.0,-9999.0,'1111122,1111122,1111122' 
LUMCON,ioos:station:LUMCON:101:1,2017-05-02T20:45:00Z,29.2533,-90.6633,1.0,5.7,89.0,-9999.0,'1111122,1111122,1111122' 
LUMCON,ioos:station:LUMCON:101:1,2017-05-02T21:00:00Z,29.2533,-90.6633,1.0,4.3,91.0,-9999.0,'1111122,1111122,1111122' 
LUMCON,ioos:station:LUMCON:101:1,2017-05-02T21:15:00Z,29.2533,-90.6633,1.0,6.0,87.0,-9999.0,'1111122,1111122,1111122' 
LUMCON,ioos:station:LUMCON:101:1,2017-05-02T21:30:00Z,29.2533,-90.6633,1.0,5.1,91.0,-9999.0,'1111122,1111122,1111122' 
LUMCON,ioos:station:LUMCON:101:1,2017-05-02T21:45:00Z,29.2533,-90.6633,1.0,6.8,106.0,-9999.0,'1111122,1111122,1111122' 
LUMCON,ioos:station:LUMCON:101:1,2017-05-02T22:00:00Z,29.2533,-90.6633,1.0,5.1,93.0,-9999.0,'1111122,1111122,1111122' 
LUMCON,ioos:station:LUMCON:101:1,2017-05-02T22:15:00Z,29.2533,-90.6633,1.0,4.3,88.0,-9999.0,'1111122,1111122,1111122' 
LUMCON,ioos:station:LUMCON:101:1,2017-05-02T22:30:00Z,29.2533,-90.6633,1.0,6.6,94.0,-9999.0,'1111122,1111122,1111122' 
LUMCON,ioos:station:LUMCON:101:1,2017-05-02T22:45:00Z,29.2533,-90.6633,1.0,5.4,78.0,-9999.0,'1111122,1111122,1111122' 
LUMCON,ioos:station:LUMCON:101:1,2017-05-02T23:00:00Z,29.2533,-90.6633,1.0,5.0,97.0,-9999.0,'1111122,1111122,1111122' 
LUMCON,ioos:station:LUMCON:101:1,2017-05-02T23:15:00Z,29.2533,-90.6633,1.0,6.4,92.0,-9999.0,'1111122,1111122,1111122' 
LUMCON,ioos:station:LUMCON:101:1,2017-05-02T23:30:00Z,29.2533,-90.6633,1.0,7.1,104.0,-9999.0,'1111122,1111122,1111122' 
LUMCON,ioos:station:LUMCON:101:1,2017-05-02T23:45:00Z,29.2533,-90.6633,1.0,6.9,105.0,-9999.0,'1111122,1111122,1111122' 
LUMCON,ioos:station:LUMCON:101:1,2017-05-03T00:00:00Z,29.2533,-90.6633,1.0,6.2,102.0,-9999.0,'1111122,1111122,1111122' 
LUMCON,ioos:station:LUMCON:101:1,2017-05-03T00:15:00Z,29.2533,-90.6633,1.0,3.9,108.0,-9999.0,'1111122,1111122,1111122' 
LUMCON,ioos:station:LUMCON:101:1,2017-05-03T00:30:00Z,29.2533,-90.6633,1.0,6.6,96.0,-9999.0,'1111122,1111122,1111122' 
LUMCON,ioos:station:LUMCON:101:1,2017-05-03T00:45:00Z,29.2533,-90.6633,1.0,6.2,96.0,-9999.0,'1111122,1111122,1111122' 
LUMCON,ioos:station:LUMCON:101:1,2017-05-03T01:00:00Z,29.2533,-90.6633,1.0,3.9,99.0,-9999.0,'1111122,1111122,1111122' 
LUMCON,ioos:station:LUMCON:101:1,2017-05-03T01:15:00Z,29.2533,-90.6633,1.0,6.4,76.0,-9999.0,'1111122,1111122,1111122' 
LUMCON,ioos:station:LUMCON:101:1,2017-05-03T01:30:00Z,29.2533,-90.6633,1.0,6.9,99.0,-9999.0,'1111122,1111122,1111122' 